Location: Vancouver
(49.2500°N, 123.1330°W)
Time: 12:48:49
(UTC-08:00)

Cosmos 676 Rocket - Visible Passes

Search period start: 20 November 2014 00:00
Search period end: 30 November 2014 00:00
Orbit: 755 x 786 km, 74.0° (Epoch: 20 November)

Date Brightness Start Highest point End Pass type
(mag) Time Alt. Az. Time Alt. Az. Time Alt. Az.
20 Nov 5.8 05:49:48 10° SSE 05:54:31 34° ESE 05:59:18 10° NE visible
20 Nov 7.4 17:57:42 10° WNW 17:59:40 12° W 18:01:38 10° WSW visible
21 Nov 6.6 05:14:30 10° SSE 05:18:29 22° E 05:22:29 10° NE visible
21 Nov 4.1 06:54:54 10° SW 07:00:08 61° WNW 07:05:26 10° NNE visible
21 Nov 7.0 17:20:00 10° NW 17:23:44 20° W 17:27:27 10° SW visible
22 Nov 7.1 04:39:56 10° ESE 04:42:31 14° E 04:45:07 10° ENE visible
22 Nov 4.1 06:18:30 10° SSW 06:23:47 87° ESE 06:29:10 10° NNE visible
23 Nov 4.8 05:42:23 10° S 05:47:33 56° ESE 05:52:46 10° NNE visible
24 Nov 5.6 05:06:37 10° SSE 05:11:24 36° ESE 05:16:13 10° NE visible
24 Nov 4.5 06:48:30 10° SW 06:53:28 39° WNW 06:58:30 10° NNE visible
24 Nov 7.3 17:14:47 10° WNW 17:16:31 12° W 17:18:16 10° WSW visible
25 Nov 6.3 04:31:17 10° SSE 04:35:20 23° E 04:39:26 10° NE visible
25 Nov 4.0 06:11:47 10° SW 06:17:01 60° WNW 06:22:19 10° NNE visible
26 Nov 6.9 03:56:39 10° SE 03:59:23 14° E 04:02:07 10° ENE visible
26 Nov 4.0 05:35:22 10° SSW 05:40:40 89° ESE 05:46:03 10° NNE visible
27 Nov 4.6 04:59:14 10° S 05:04:25 58° ESE 05:09:40 10° NNE visible
27 Nov 5.0 06:42:27 10° WSW 06:46:55 27° NW 06:51:25 10° N visible
28 Nov 5.4 04:23:54 12° SSE 04:28:15 37° ESE 04:33:07 10° NE visible
28 Nov 4.5 06:05:24 10° SW 06:10:21 39° WNW 06:15:22 10° NNE visible
29 Nov 6.1 03:50:56 22° ESE 03:52:11 24° E 03:56:21 10° NE visible
29 Nov 4.0 05:31:23 30° SW 05:33:54 58° WNW 05:39:11 10° NNE visible
